Time,TemperatureF,DewpointF,PressureIn,WindDirection,WindDirectionDegrees,WindSpeedMPH,WindSpeedGustMPH,Humidity,HourlyPrecipIn,Conditions,Clouds,dailyrainin,SoftwareType,DateUTC
2013-11-16 00:06:00,49.8,44.5,29.87,North,0,0.0,0.0,82,0.00,,,0.00,WUHU21623XXSP,2013-11-16 06:06:00,
2013-11-16 00:08:00,49.8,44.5,29.87,North,0,0.0,0.0,82,0.00,,,0.00,WUHU21623XXSP,2013-11-16 06:08:00,
2013-11-16 00:10:00,50.0,44.7,29.87,North,0,0.0,0.0,82,0.00,,,0.00,WUHU21623XXSP,2013-11-16 06:10:00,
2013-11-16 00:12:00,50.2,44.9,29.86,North,0,0.0,0.0,82,0.00,,,0.00,WUHU21623XXSP,2013-11-16 06:12:00,
2013-11-16 00:16:00,50.2,44.9,29.86,North,0,0.0,0.0,82,0.00,,,0.00,WUHU21623XXSP,2013-11-16 06:16:00,
2013-11-16 00:19:00,50.2,44.9,29.86,North,0,0.0,0.0,82,0.00,,,0.00,WUHU21623XXSP,2013-11-16 06:19:00,
2013-11-16 00:21:00,50.2,44.9,29.86,North,0,0.0,0.0,82,0.00,,,0.00,WUHU21623XXSP,2013-11-16 06:21:00,
2013-11-16 00:23:00,50.4,44.9,29.86,North,0,0.0,0.0,82,0.00,,,0.00,WUHU21623XXSP,2013-11-16 06:23:00,
2013-11-16 00:27:00,50.4,45.0,29.86,North,0,0.0,0.0,82,0.00,,,0.00,WUHU21623XXSP,2013-11-16 06:27:00,
2013-11-16 00:29:00,50.4,45.0,29.86,North,0,0.0,0.0,82,0.00,,,0.00,WUHU21623XXSP,2013-11-16 06:29:00,
2013-11-16 00:32:00,50.4,45.0,29.86,North,0,0.0,0.0,82,0.00,,,0.00,WUHU21623XXSP,2013-11-16 06:32:00,
2013-11-16 00:34:00,50.5,45.2,29.86,North,0,0.0,0.0,82,0.00,,,0.00,WUHU21623XXSP,2013-11-16 06:34:00,
2013-11-16 00:38:00,50.5,45.2,29.85,North,0,0.0,0.0,82,0.00,,,0.00,WUHU21623XXSP,2013-11-16 06:38:00,
2013-11-16 00:40:00,50.5,45.2,29.86,North,0,0.0,0.0,82,0.00,,,0.00,WUHU21623XXSP,2013-11-16 06:40:00,
2013-11-16 00:42:00,50.5,45.2,29.86,North,0,0.0,0.0,82,0.00,,,0.00,WUHU21623XXSP,2013-11-16 06:42:00,
2013-11-16 00:47:00,50.7,45.4,29.85,North,0,0.0,0.0,82,0.00,,,0.00,WUHU21623XXSP,2013-11-16 06:47:00,
2013-11-16 00:49:00,50.7,45.4,29.85,North,0,0.0,0.0,82,0.00,,,0.00,WUHU21623XXSP,2013-11-16 06:49:00,
2013-11-16 00:51:00,50.7,45.4,29.85,North,0,0.0,0.0,82,0.00,,,0.00,WUHU21623XXSP,2013-11-16 06:51:00,
2013-11-16 00:53:00,50.7,45.4,29.85,North,0,0.0,0.0,82,0.00,,,0.00,WUHU21623XXSP,2013-11-16 06:53:00,
2013-11-16 00:57:00,50.9,45.6,29.84,North,0,0.0,0.0,82,0.00,,,0.00,WUHU21623XXSP,2013-11-16 06:57:00,
2013-11-16 00:59:00,51.1,45.8,29.84,North,0,0.0,0.0,82,0.00,,,0.00,WUHU21623XXSP,2013-11-16 06:59:00,
2013-11-16 01:02:00,51.1,45.8,29.85,North,0,0.0,0.0,82,0.00,,,0.00,WUHU21623XXSP,2013-11-16 07:02:00,
2013-11-16 01:12:00,51.1,45.8,29.85,North,0,0.0,0.0,82,0.00,,,0.00,WUHU21623XXSP,2013-11-16 07:12:00,
2013-11-16 01:18:00,51.4,46.1,29.85,North,0,0.0,0.0,82,0.00,,,0.00,WUHU21623XXSP,2013-11-16 07:18:00,
2013-11-16 01:23:00,51.4,46.1,29.85,North,0,0.0,0.0,82,0.00,,,0.00,WUHU21623XXSP,2013-11-16 07:23:00,
2013-11-16 01:28:00,51.4,46.1,29.85,North,0,0.0,0.0,82,0.00,,,0.00,WUHU21623XXSP,2013-11-16 07:28:00,
2013-11-16 01:33:00,51.4,46.1,29.84,North,0,0.0,0.0,82,0.00,,,0.00,WUHU21623XXSP,2013-11-16 07:33:00,
2013-11-16 01:39:00,51.6,46.0,29.84,North,0,0.0,0.0,81,0.00,,,0.00,WUHU21623XXSP,2013-11-16 07:39:00,
2013-11-16 01:44:00,51.6,46.0,29.84,North,0,0.0,0.0,81,0.00,,,0.00,WUHU21623XXSP,2013-11-16 07:44:00,
2013-11-16 01:49:00,51.6,46.0,29.84,North,0,0.0,0.0,81,0.00,,,0.00,WUHU21623XXSP,2013-11-16 07:49:00,
2013-11-16 01:54:00,51.6,46.0,29.84,North,0,0.0,0.0,81,0.00,,,0.00,WUHU21623XXSP,2013-11-16 07:54:00,
2013-11-16 01:59:00,51.6,46.0,29.85,North,0,0.0,0.0,81,0.00,,,0.00,WUHU21623XXSP,2013-11-16 07:59:00,
2013-11-16 02:04:00,51.6,46.0,29.85,North,0,0.0,0.0,81,0.00,,,0.00,WUHU21623XXSP,2013-11-16 08:04:00,
2013-11-16 02:09:00,51.8,46.2,29.85,North,0,0.0,0.0,81,0.00,,,0.00,WUHU21623XXSP,2013-11-16 08:09:00,
2013-11-16 02:14:00,52.0,46.3,29.85,North,0,0.0,0.0,81,0.00,,,0.00,WUHU21623XXSP,2013-11-16 08:14:00,
2013-11-16 02:19:00,52.0,46.3,29.85,North,0,0.0,0.0,81,0.00,,,0.00,WUHU21623XXSP,2013-11-16 08:19:00,
2013-11-16 02:24:00,52.0,46.3,29.85,North,0,0.0,0.0,81,0.00,,,0.00,WUHU21623XXSP,2013-11-16 08:24:00,
2013-11-16 02:29:00,52.0,46.3,29.85,North,0,0.0,0.0,81,0.00,,,0.00,WUHU21623XXSP,2013-11-16 08:29:00,
2013-11-16 02:34:00,52.0,46.3,29.85,North,0,0.0,0.0,81,0.00,,,0.00,WUHU21623XXSP,2013-11-16 08:34:00,
2013-11-16 02:39:00,52.0,46.3,29.85,North,0,0.0,0.0,81,0.00,,,0.00,WUHU21623XXSP,2013-11-16 08:39:00,
2013-11-16 02:44:00,52.0,46.3,29.85,North,0,0.0,0.0,81,0.00,,,0.00,WUHU21623XXSP,2013-11-16 08:44:00,
2013-11-16 02:49:00,52.0,46.3,29.84,North,0,0.0,0.0,81,0.00,,,0.00,WUHU21623XXSP,2013-11-16 08:49:00,
2013-11-16 02:54:00,52.0,46.3,29.84,North,0,0.0,0.0,81,0.00,,,0.00,WUHU21623XXSP,2013-11-16 08:54:00,
2013-11-16 02:59:00,52.0,46.2,29.84,North,0,0.0,0.0,81,0.00,,,0.00,WUHU21623XXSP,2013-11-16 08:59:00,
2013-11-16 03:04:00,51.6,46.3,29.84,North,0,0.0,0.0,82,0.00,,,0.00,WUHU21623XXSP,2013-11-16 09:04:00,
2013-11-16 03:09:00,51.6,46.3,29.84,North,0,0.0,0.0,82,0.00,,,0.00,WUHU21623XXSP,2013-11-16 09:09:00,
2013-11-16 03:14:00,51.6,46.3,29.83,North,0,0.0,0.0,82,0.00,,,0.00,WUHU21623XXSP,2013-11-16 09:14:00,
2013-11-16 03:19:00,51.6,46.3,29.83,North,0,0.0,0.0,82,0.00,,,0.00,WUHU21623XXSP,2013-11-16 09:19:00,
2013-11-16 03:24:00,51.4,46.1,29.82,North,0,0.0,0.0,82,0.00,,,0.00,WUHU21623XXSP,2013-11-16 09:24:00,
2013-11-16 03:29:00,51.4,46.1,29.82,North,0,0.0,0.0,82,0.00,,,0.00,WUHU21623XXSP,2013-11-16 09:29:00,
2013-11-16 03:34:00,51.4,46.1,29.82,North,0,0.0,0.0,82,0.00,,,0.00,WUHU21623XXSP,2013-11-16 09:34:00,
2013-11-16 03:39:00,51.3,45.9,29.82,North,0,0.0,0.0,82,0.00,,,0.00,WUHU21623XXSP,2013-11-16 09:39:00,
2013-11-16 03:44:00,51.3,45.9,29.82,North,0,0.0,0.0,82,0.00,,,0.00,WUHU21623XXSP,2013-11-16 09:44:00,
2013-11-16 03:49:00,51.1,45.8,29.82,North,0,0.0,0.0,82,0.00,,,0.00,WUHU21623XXSP,2013-11-16 09:49:00,
2013-11-16 03:54:00,50.9,45.8,29.82,North,0,0.0,0.0,83,0.00,,,0.00,WUHU21623XXSP,2013-11-16 09:54:00,
2013-11-16 03:59:00,50.7,45.9,29.82,North,0,0.0,0.0,83,0.00,,,0.00,WUHU21623XXSP,2013-11-16 09:59:00,
2013-11-16 04:04:00,50.7,45.7,29.81,North,0,0.0,0.0,83,0.00,,,0.00,WUHU21623XXSP,2013-11-16 10:04:00,
2013-11-16 04:09:00,50.7,45.7,29.81,North,0,0.0,0.0,83,0.00,,,0.00,WUHU21623XXSP,2013-11-16 10:09:00,
2013-11-16 04:14:00,50.5,45.8,29.81,North,0,0.0,0.0,84,0.00,,,0.00,WUHU21623XXSP,2013-11-16 10:14:00,
2013-11-16 04:19:00,50.5,45.8,29.81,North,0,0.0,0.0,84,0.00,,,0.00,WUHU21623XXSP,2013-11-16 10:19:00,
2013-11-16 04:24:00,50.5,45.8,29.80,North,0,0.0,0.0,84,0.00,,,0.00,WUHU21623XXSP,2013-11-16 10:24:00,
2013-11-16 04:29:00,50.4,45.6,29.80,North,0,0.0,0.0,84,0.00,,,0.00,WUHU21623XXSP,2013-11-16 10:29:00,
2013-11-16 04:34:00,50.4,45.6,29.80,North,0,0.0,0.0,84,0.00,,,0.00,WUHU21623XXSP,2013-11-16 10:34:00,
2013-11-16 04:39:00,50.4,45.6,29.80,North,0,0.0,0.0,84,0.00,,,0.00,WUHU21623XXSP,2013-11-16 10:39:00,
2013-11-16 04:44:00,50.4,46.0,29.80,North,0,0.0,0.0,85,0.00,,,0.00,WUHU21623XXSP,2013-11-16 10:44:00,
2013-11-16 04:49:00,50.4,46.0,29.80,North,0,0.0,0.0,85,0.00,,,0.00,WUHU21623XXSP,2013-11-16 10:49:00,
2013-11-16 04:54:00,50.4,46.0,29.80,North,0,0.0,0.0,85,0.00,,,0.00,WUHU21623XXSP,2013-11-16 10:54:00,
2013-11-16 04:59:00,50.4,46.0,29.79,North,0,0.0,0.0,85,0.00,,,0.00,WUHU21623XXSP,2013-11-16 10:59:00,
2013-11-16 05:04:00,50.4,46.0,29.79,North,0,0.0,0.0,85,0.00,,,0.00,WUHU21623XXSP,2013-11-16 11:04:00,
2013-11-16 05:09:00,50.4,46.0,29.79,North,0,0.0,0.0,85,0.00,,,0.00,WUHU21623XXSP,2013-11-16 11:09:00,
2013-11-16 05:14:00,50.4,46.0,29.79,North,0,0.0,0.0,85,0.00,,,0.00,WUHU21623XXSP,2013-11-16 11:14:00,
2013-11-16 05:19:00,50.5,46.4,29.78,North,0,0.0,0.0,86,0.00,,,0.00,WUHU21623XXSP,2013-11-16 11:19:00,
2013-11-16 05:24:00,50.7,46.6,29.78,North,0,0.0,0.0,86,0.00,,,0.00,WUHU21623XXSP,2013-11-16 11:24:00,
2013-11-16 05:29:00,50.9,46.8,29.78,North,0,0.0,0.0,86,0.00,,,0.00,WUHU21623XXSP,2013-11-16 11:29:00,
2013-11-16 05:34:00,51.1,47.0,29.78,North,0,0.0,0.0,86,0.00,,,0.00,WUHU21623XXSP,2013-11-16 11:34:00,
2013-11-16 05:39:00,51.4,47.3,29.77,North,0,0.0,0.0,86,0.00,,,0.00,WUHU21623XXSP,2013-11-16 11:39:00,
2013-11-16 05:44:00,51.6,47.3,29.77,North,0,0.0,0.0,87,0.00,,,0.00,WUHU21623XXSP,2013-11-16 11:44:00,
2013-11-16 05:49:00,52.0,48.2,29.77,North,0,0.0,0.0,87,0.00,,,0.00,WUHU21623XXSP,2013-11-16 11:49:00,
2013-11-16 05:54:00,52.0,47.9,29.77,North,0,0.0,0.0,86,0.00,,,0.00,WUHU21623XXSP,2013-11-16 11:54:00,
2013-11-16 05:59:00,52.3,48.1,29.76,North,0,0.0,0.0,86,0.00,,,0.00,WUHU21623XXSP,2013-11-16 11:59:00,
2013-11-16 06:04:00,52.3,48.2,29.77,North,0,0.0,0.0,86,0.00,,,0.00,WUHU21623XXSP,2013-11-16 12:04:00,
2013-11-16 06:09:00,52.5,48.4,29.77,North,0,0.0,0.0,86,0.00,,,0.00,WUHU21623XXSP,2013-11-16 12:09:00,
2013-11-16 06:14:00,52.7,48.6,29.76,North,0,0.0,0.0,86,0.00,,,0.00,WUHU21623XXSP,2013-11-16 12:14:00,
2013-11-16 06:19:00,52.9,48.8,29.77,North,0,0.0,0.0,86,0.00,,,0.00,WUHU21623XXSP,2013-11-16 12:19:00,
2013-11-16 06:24:00,53.1,49.0,29.77,North,0,0.0,0.0,86,0.00,,,0.00,WUHU21623XXSP,2013-11-16 12:24:00,
2013-11-16 06:29:00,53.2,49.1,29.77,North,0,0.0,0.0,86,0.00,,,0.00,WUHU21623XXSP,2013-11-16 12:29:00,
2013-11-16 06:34:00,53.4,49.6,29.77,North,0,0.0,0.0,87,0.00,,,0.00,WUHU21623XXSP,2013-11-16 12:34:00,
2013-11-16 06:39:00,53.4,49.3,29.78,North,0,0.0,0.0,86,0.00,,,0.00,WUHU21623XXSP,2013-11-16 12:39:00,
2013-11-16 06:44:00,53.4,49.3,29.77,North,0,0.0,0.0,86,0.00,,,0.00,WUHU21623XXSP,2013-11-16 12:44:00,
2013-11-16 06:49:00,53.8,49.7,29.77,North,0,0.0,0.0,86,0.00,,,0.00,WUHU21623XXSP,2013-11-16 12:49:00,
2013-11-16 06:54:00,53.8,49.7,29.76,North,0,0.0,0.0,86,0.00,,,0.00,WUHU21623XXSP,2013-11-16 12:54:00,
2013-11-16 06:59:00,53.8,49.7,29.76,North,0,0.0,0.0,86,0.00,,,0.00,WUHU21623XXSP,2013-11-16 12:59:00,
2013-11-16 07:04:00,54.0,49.8,29.76,North,0,0.0,0.0,86,0.00,,,0.00,WUHU21623XXSP,2013-11-16 13:04:00,
2013-11-16 07:09:00,54.0,49.8,29.76,North,0,0.0,0.0,86,0.00,,,0.00,WUHU21623XXSP,2013-11-16 13:09:00,
2013-11-16 07:14:00,54.0,49.8,29.76,North,0,0.0,0.0,86,0.00,,,0.00,WUHU21623XXSP,2013-11-16 13:14:00,
2013-11-16 07:19:00,54.3,50.0,29.75,North,0,0.0,0.0,86,0.00,,,0.00,WUHU21623XXSP,2013-11-16 13:19:00,
2013-11-16 07:24:00,54.3,50.2,29.76,North,0,0.0,0.0,86,0.00,,,0.00,WUHU21623XXSP,2013-11-16 13:24:00,
2013-11-16 07:29:00,54.5,50.2,29.76,North,0,0.0,0.0,86,0.00,,,0.00,WUHU21623XXSP,2013-11-16 13:29:00,
2013-11-16 07:34:00,54.9,50.5,29.76,North,0,0.0,0.0,86,0.00,,,0.00,WUHU21623XXSP,2013-11-16 13:34:00,
2013-11-16 07:39:00,55.0,50.7,29.75,North,0,0.0,0.0,86,0.00,,,0.00,WUHU21623XXSP,2013-11-16 13:39:00,
2013-11-16 07:44:00,55.2,51.0,29.76,North,0,0.0,0.0,86,0.00,,,0.00,WUHU21623XXSP,2013-11-16 13:44:00,
2013-11-16 07:49:00,55.6,51.4,29.75,North,0,0.0,0.0,86,0.00,,,0.00,WUHU21623XXSP,2013-11-16 13:49:00,
2013-11-16 07:54:00,55.9,51.4,29.76,North,0,0.0,0.0,85,0.00,,,0.00,WUHU21623XXSP,2013-11-16 13:54:00,
2013-11-16 07:59:00,56.1,51.4,29.76,North,0,0.0,0.0,85,0.00,,,0.00,WUHU21623XXSP,2013-11-16 13:59:00,
2013-11-16 08:04:00,56.5,52.0,29.75,North,0,0.0,0.0,85,0.00,,,0.00,WUHU21623XXSP,2013-11-16 14:04:00,
2013-11-16 08:09:00,57.0,52.5,29.75,North,0,0.0,0.0,85,0.00,,,0.00,WUHU21623XXSP,2013-11-16 14:09:00,
2013-11-16 08:14:00,57.4,52.5,29.75,North,0,0.0,0.0,85,0.00,,,0.00,WUHU21623XXSP,2013-11-16 14:14:00,
2013-11-16 08:19:00,57.7,52.9,29.74,North,0,0.0,0.0,84,0.00,,,0.00,WUHU21623XXSP,2013-11-16 14:19:00,
2013-11-16 08:24:00,57.9,52.8,29.75,North,0,0.0,0.0,83,0.00,,,0.00,WUHU21623XXSP,2013-11-16 14:24:00,
2013-11-16 08:29:00,58.3,53.1,29.75,North,0,0.0,0.0,83,0.00,,,0.00,WUHU21623XXSP,2013-11-16 14:29:00,
2013-11-16 08:34:00,58.8,53.7,29.74,North,0,0.0,0.0,83,0.00,,,0.00,WUHU21623XXSP,2013-11-16 14:34:00,
2013-11-16 08:39:00,58.8,53.3,29.74,North,0,0.0,0.0,82,0.00,,,0.00,WUHU21623XXSP,2013-11-16 14:39:00,
2013-11-16 08:44:00,58.8,53.3,29.74,North,0,0.0,0.0,82,0.00,,,0.00,WUHU21623XXSP,2013-11-16 14:44:00,
2013-11-16 08:49:00,58.8,53.0,29.74,North,0,0.0,0.0,81,0.00,,,0.00,WUHU21623XXSP,2013-11-16 14:49:00,
2013-11-16 08:54:00,59.2,53.4,29.74,North,0,0.0,0.0,81,0.00,,,0.00,WUHU21623XXSP,2013-11-16 14:54:00,
2013-11-16 08:59:00,59.4,53.6,29.74,North,0,0.0,0.0,81,0.00,,,0.00,WUHU21623XXSP,2013-11-16 14:59:00,
2013-11-16 09:04:00,59.5,53.7,29.74,North,0,0.0,0.0,81,0.00,,,0.00,WUHU21623XXSP,2013-11-16 15:04:00,
2013-11-16 09:09:00,59.7,53.6,29.74,North,0,0.0,0.0,80,0.00,,,0.00,WUHU21623XXSP,2013-11-16 15:09:00,
2013-11-16 09:14:00,60.1,54.0,29.74,North,0,0.0,0.0,80,0.00,,,0.00,WUHU21623XXSP,2013-11-16 15:14:00,
2013-11-16 09:19:00,60.4,54.0,29.74,North,0,0.0,0.0,80,0.00,,,0.00,WUHU21623XXSP,2013-11-16 15:19:00,
2013-11-16 09:24:00,60.4,54.3,29.74,North,0,0.0,0.0,80,0.00,,,0.00,WUHU21623XXSP,2013-11-16 15:24:00,
2013-11-16 09:29:00,60.4,54.0,29.75,North,0,0.0,0.0,79,0.00,,,0.00,WUHU21623XXSP,2013-11-16 15:29:00,
2013-11-16 09:34:00,60.6,54.1,29.75,North,0,0.0,0.0,79,0.00,,,0.00,WUHU21623XXSP,2013-11-16 15:34:00,
2013-11-16 09:39:00,60.6,54.1,29.76,North,0,0.0,0.0,79,0.00,,,0.00,WUHU21623XXSP,2013-11-16 15:39:00,
2013-11-16 09:44:00,61.0,54.5,29.76,North,0,0.0,0.0,79,0.00,,,0.00,WUHU21623XXSP,2013-11-16 15:44:00,
2013-11-16 09:49:00,61.0,54.5,29.76,North,0,0.0,0.0,79,0.00,,,0.00,WUHU21623XXSP,2013-11-16 15:49:00,
2013-11-16 09:54:00,61.2,54.6,29.76,North,0,0.0,0.0,78,0.00,,,0.00,WUHU21623XXSP,2013-11-16 15:54:00,
2013-11-16 09:59:00,61.3,54.4,29.76,North,0,0.0,0.0,78,0.00,,,0.00,WUHU21623XXSP,2013-11-16 15:59:00,
2013-11-16 10:04:00,61.5,54.6,29.75,North,0,0.0,0.0,78,0.00,,,0.00,WUHU21623XXSP,2013-11-16 16:04:00,
2013-11-16 10:09:00,61.7,54.8,29.76,North,0,0.0,0.0,78,0.00,,,0.00,WUHU21623XXSP,2013-11-16 16:09:00,
2013-11-16 10:14:00,61.9,54.6,29.76,North,0,0.0,0.0,77,0.00,,,0.00,WUHU21623XXSP,2013-11-16 16:14:00,
2013-11-16 10:19:00,61.9,54.6,29.75,North,0,0.0,0.0,77,0.00,,,0.00,WUHU21623XXSP,2013-11-16 16:19:00,
2013-11-16 10:24:00,62.2,54.7,29.74,North,0,0.0,0.0,77,0.00,,,0.00,WUHU21623XXSP,2013-11-16 16:24:00,
2013-11-16 10:29:00,62.4,55.1,29.74,North,0,0.0,0.0,77,0.00,,,0.00,WUHU21623XXSP,2013-11-16 16:29:00,
2013-11-16 10:34:00,62.4,55.1,29.74,North,0,0.0,0.0,77,0.00,,,0.00,WUHU21623XXSP,2013-11-16 16:34:00,
2013-11-16 10:39:00,62.8,55.4,29.74,North,0,0.0,0.0,77,0.00,,,0.00,WUHU21623XXSP,2013-11-16 16:39:00,
2013-11-16 10:44:00,63.1,55.4,29.74,North,0,0.0,0.0,76,0.00,,,0.00,WUHU21623XXSP,2013-11-16 16:44:00,
2013-11-16 10:49:00,63.3,55.4,29.74,North,0,0.0,0.0,76,0.00,,,0.00,WUHU21623XXSP,2013-11-16 16:49:00,
2013-11-16 10:54:00,63.3,55.2,29.74,North,0,0.0,0.0,75,0.00,,,0.00,WUHU21623XXSP,2013-11-16 16:54:00,
2013-11-16 10:59:00,63.5,55.4,29.73,North,0,0.0,0.0,75,0.00,,,0.00,WUHU21623XXSP,2013-11-16 16:59:00,
2013-11-16 11:04:00,63.5,55.4,29.72,North,0,0.0,0.0,75,0.00,,,0.00,WUHU21623XXSP,2013-11-16 17:04:00,
2013-11-16 11:09:00,63.5,55.4,29.72,North,0,0.0,0.0,75,0.00,,,0.00,WUHU21623XXSP,2013-11-16 17:09:00,
2013-11-16 11:14:00,63.7,55.6,29.72,North,0,0.0,0.0,75,0.00,,,0.00,WUHU21623XXSP,2013-11-16 17:14:00,
2013-11-16 11:19:00,63.7,55.6,29.72,North,0,0.0,0.0,75,0.00,,,0.00,WUHU21623XXSP,2013-11-16 17:19:00,
2013-11-16 11:24:00,63.7,55.9,29.72,North,0,0.0,0.0,76,0.00,,,0.00,WUHU21623XXSP,2013-11-16 17:24:00,
2013-11-16 11:29:00,63.5,55.8,29.71,North,0,0.0,0.0,76,0.00,,,0.00,WUHU21623XXSP,2013-11-16 17:29:00,
2013-11-16 11:34:00,63.1,55.8,29.71,North,0,0.0,0.0,77,0.00,,,0.00,WUHU21623XXSP,2013-11-16 17:34:00,
2013-11-16 11:39:00,63.0,55.9,29.71,North,0,0.0,0.0,78,0.00,,,0.00,WUHU21623XXSP,2013-11-16 17:39:00,
2013-11-16 11:44:00,62.8,55.8,29.70,North,0,0.0,0.0,78,0.00,,,0.00,WUHU21623XXSP,2013-11-16 17:44:00,
2013-11-16 11:49:00,62.8,55.8,29.70,North,0,0.0,0.0,78,0.00,,,0.00,WUHU21623XXSP,2013-11-16 17:49:00,
2013-11-16 11:54:00,62.4,55.4,29.70,North,0,0.0,0.0,78,0.00,,,0.00,WUHU21623XXSP,2013-11-16 17:54:00,
2013-11-16 11:59:00,62.4,55.8,29.69,North,0,0.0,0.0,79,0.00,,,0.00,WUHU21623XXSP,2013-11-16 17:59:00,
2013-11-16 12:04:00,62.1,55.5,29.69,North,0,0.0,0.0,79,0.00,,,0.00,WUHU21623XXSP,2013-11-16 18:04:00,
2013-11-16 12:09:00,61.7,55.5,29.69,North,0,0.0,0.0,80,0.00,,,0.00,WUHU21623XXSP,2013-11-16 18:09:00,
2013-11-16 12:14:00,61.5,55.7,29.69,North,0,0.0,0.0,81,0.00,,,0.00,WUHU21623XXSP,2013-11-16 18:14:00,
2013-11-16 12:19:00,61.3,55.5,29.69,North,0,0.0,0.0,81,0.00,,,0.00,WUHU21623XXSP,2013-11-16 18:19:00,
2013-11-16 12:24:00,61.3,55.5,29.68,North,0,0.0,0.0,81,0.00,,,0.00,WUHU21623XXSP,2013-11-16 18:24:00,
2013-11-16 12:29:00,61.3,55.8,29.66,North,0,0.0,0.0,82,0.00,,,0.00,WUHU21623XXSP,2013-11-16 18:29:00,
2013-11-16 12:34:00,61.5,56.0,29.66,North,0,0.0,0.0,82,0.00,,,0.00,WUHU21623XXSP,2013-11-16 18:34:00,
2013-11-16 12:39:00,61.5,56.0,29.65,North,0,0.0,0.0,82,0.00,,,0.00,WUHU21623XXSP,2013-11-16 18:39:00,
2013-11-16 12:44:00,61.5,56.0,29.66,North,0,0.0,0.0,82,0.00,,,0.00,WUHU21623XXSP,2013-11-16 18:44:00,
2013-11-16 12:49:00,61.5,56.0,29.66,North,0,0.0,0.0,82,0.00,,,0.00,WUHU21623XXSP,2013-11-16 18:49:00,
2013-11-16 12:54:00,61.5,56.0,29.66,North,0,0.0,0.0,82,0.00,,,0.00,WUHU21623XXSP,2013-11-16 18:54:00,
2013-11-16 12:59:00,61.5,56.0,29.66,North,0,0.0,0.0,82,0.00,,,0.00,WUHU21623XXSP,2013-11-16 18:59:00,
2013-11-16 13:04:00,61.5,56.0,29.65,North,0,0.0,0.0,82,0.00,,,0.00,WUHU21623XXSP,2013-11-16 19:04:00,
2013-11-16 13:09:00,61.5,56.0,29.64,North,0,0.0,0.0,82,0.00,,,0.00,WUHU21623XXSP,2013-11-16 19:09:00,
2013-11-16 13:14:00,61.0,55.8,29.63,North,0,0.0,0.0,83,0.00,,,0.00,WUHU21623XXSP,2013-11-16 19:14:00,
2013-11-16 13:19:00,61.0,56.1,29.62,North,0,0.0,0.0,84,0.00,,,0.00,WUHU21623XXSP,2013-11-16 19:19:00,
2013-11-16 13:25:00,61.0,56.1,29.62,North,0,0.0,0.0,84,0.00,,,0.00,WUHU21623XXSP,2013-11-16 19:25:00,
2013-11-16 13:30:00,61.0,56.1,29.62,North,0,0.0,0.0,84,0.00,,,0.00,WUHU21623XXSP,2013-11-16 19:30:00,
2013-11-16 13:35:00,61.2,56.5,29.61,North,0,0.0,0.0,85,0.00,,,0.00,WUHU21623XXSP,2013-11-16 19:35:00,
2013-11-16 13:40:00,61.3,56.8,29.61,North,0,0.0,0.0,85,0.00,,,0.00,WUHU21623XXSP,2013-11-16 19:40:00,
2013-11-16 13:45:00,61.9,57.3,29.61,North,0,0.0,0.0,85,0.00,,,0.00,WUHU21623XXSP,2013-11-16 19:45:00,
2013-11-16 13:50:00,62.2,57.7,29.61,North,0,0.0,0.0,85,0.00,,,0.00,WUHU21623XXSP,2013-11-16 19:50:00,
2013-11-16 13:55:00,62.4,57.5,29.60,North,0,0.0,0.0,84,0.00,,,0.00,WUHU21623XXSP,2013-11-16 19:55:00,
2013-11-16 14:00:00,62.4,57.5,29.59,North,0,0.0,0.0,84,0.00,,,0.00,WUHU21623XXSP,2013-11-16 20:00:00,
2013-11-16 14:05:00,62.4,57.5,29.58,North,0,0.0,0.0,84,0.00,,,0.00,WUHU21623XXSP,2013-11-16 20:05:00,
2013-11-16 14:10:00,63.1,57.5,29.58,North,0,0.0,0.0,83,0.00,,,0.00,WUHU21623XXSP,2013-11-16 20:10:00,
2013-11-16 14:15:00,63.3,57.7,29.58,North,0,0.0,0.0,82,0.00,,,0.00,WUHU21623XXSP,2013-11-16 20:15:00,
2013-11-16 14:20:00,63.3,57.7,29.58,North,0,0.0,0.0,82,0.00,,,0.00,WUHU21623XXSP,2013-11-16 20:20:00,
2013-11-16 14:25:00,63.0,57.0,29.58,North,0,0.0,0.0,81,0.00,,,0.00,WUHU21623XXSP,2013-11-16 20:25:00,
2013-11-16 14:30:00,62.8,56.8,29.58,North,0,0.0,0.0,81,0.00,,,0.00,WUHU21623XXSP,2013-11-16 20:30:00,
2013-11-16 14:35:00,62.8,57.2,29.58,North,0,0.0,0.0,82,0.00,,,0.00,WUHU21623XXSP,2013-11-16 20:35:00,
2013-11-16 14:40:00,63.1,57.5,29.57,North,0,0.0,0.0,82,0.00,,,0.00,WUHU21623XXSP,2013-11-16 20:40:00,
2013-11-16 14:45:00,63.5,57.4,29.56,North,0,0.0,0.0,81,0.00,,,0.00,WUHU21623XXSP,2013-11-16 20:45:00,
2013-11-16 14:50:00,63.7,57.5,29.56,North,0,0.0,0.0,80,0.00,,,0.00,WUHU21623XXSP,2013-11-16 20:50:00,
2013-11-16 14:55:00,63.7,57.4,29.56,North,0,0.0,0.0,80,0.00,,,0.00,WUHU21623XXSP,2013-11-16 20:55:00,
2013-11-16 15:00:00,63.7,57.4,29.56,North,0,0.0,0.0,80,0.00,,,0.00,WUHU21623XXSP,2013-11-16 21:00:00,
2013-11-16 15:05:00,64.0,57.0,29.56,North,0,0.0,0.0,79,0.00,,,0.00,WUHU21623XXSP,2013-11-16 21:05:00,
2013-11-16 15:10:00,64.0,57.4,29.55,North,0,0.0,0.0,79,0.00,,,0.00,WUHU21623XXSP,2013-11-16 21:10:00,
2013-11-16 15:15:00,64.2,57.2,29.56,North,0,0.0,0.0,78,0.00,,,0.00,WUHU21623XXSP,2013-11-16 21:15:00,
2013-11-16 15:20:00,64.2,57.2,29.56,North,0,0.0,0.0,79,0.00,,,0.00,WUHU21623XXSP,2013-11-16 21:20:00,
2013-11-16 15:25:00,64.4,57.4,29.56,North,0,0.0,0.0,78,0.00,,,0.00,WUHU21623XXSP,2013-11-16 21:25:00,
2013-11-16 15:30:00,64.2,57.2,29.56,North,0,0.0,0.0,78,0.00,,,0.00,WUHU21623XXSP,2013-11-16 21:30:00,
2013-11-16 15:35:00,64.6,57.5,29.56,North,0,0.0,0.0,78,0.00,,,0.00,WUHU21623XXSP,2013-11-16 21:35:00,
2013-11-16 15:40:00,64.6,57.2,29.56,North,0,0.0,0.0,77,0.00,,,0.00,WUHU21623XXSP,2013-11-16 21:40:00,
2013-11-16 15:45:00,64.6,57.2,29.56,North,0,0.0,0.0,77,0.00,,,0.00,WUHU21623XXSP,2013-11-16 21:45:00,
2013-11-16 15:50:00,64.6,57.2,29.56,North,0,0.0,0.0,77,0.00,,,0.00,WUHU21623XXSP,2013-11-16 21:50:00,
2013-11-16 15:55:00,64.2,57.0,29.56,North,0,0.0,0.0,77,0.00,,,0.00,WUHU21623XXSP,2013-11-16 21:55:00,
2013-11-16 16:00:00,64.2,56.8,29.56,North,0,0.0,0.0,77,0.00,,,0.00,WUHU21623XXSP,2013-11-16 22:00:00,
2013-11-16 16:05:00,64.2,56.8,29.57,North,0,0.0,0.0,77,0.00,,,0.00,WUHU21623XXSP,2013-11-16 22:05:00,
2013-11-16 16:10:00,64.2,56.8,29.57,North,0,0.0,0.0,77,0.00,,,0.00,WUHU21623XXSP,2013-11-16 22:10:00,
2013-11-16 16:15:00,64.0,56.7,29.56,North,0,0.0,0.0,77,0.00,,,0.00,WUHU21623XXSP,2013-11-16 22:15:00,
2013-11-16 16:20:00,64.0,56.7,29.57,North,0,0.0,0.0,77,0.00,,,0.00,WUHU21623XXSP,2013-11-16 22:20:00,
2013-11-16 16:25:00,63.5,56.1,29.57,North,0,0.0,0.0,77,0.00,,,0.00,WUHU21623XXSP,2013-11-16 22:25:00,
2013-11-16 16:30:00,63.3,55.9,29.58,North,0,0.0,0.0,77,0.00,,,0.00,WUHU21623XXSP,2013-11-16 22:30:00,
2013-11-16 16:35:00,63.1,56.1,29.57,North,0,0.0,0.0,78,0.00,,,0.00,WUHU21623XXSP,2013-11-16 22:35:00,
2013-11-16 16:40:00,62.8,55.9,29.57,North,0,0.0,0.0,78,0.00,,,0.00,WUHU21623XXSP,2013-11-16 22:40:00,
2013-11-16 16:45:00,62.6,55.6,29.58,North,0,0.0,0.0,78,0.00,,,0.00,WUHU21623XXSP,2013-11-16 22:45:00,
2013-11-16 16:50:00,62.6,55.8,29.58,North,0,0.0,0.0,79,0.00,,,0.00,WUHU21623XXSP,2013-11-16 22:50:00,
2013-11-16 16:55:00,62.4,55.8,29.59,North,0,0.0,0.0,79,0.00,,,0.00,WUHU21623XXSP,2013-11-16 22:55:00,
2013-11-16 17:00:00,62.4,55.8,29.58,North,0,0.0,0.0,79,0.00,,,0.00,WUHU21623XXSP,2013-11-16 23:00:00,
2013-11-16 17:05:00,62.4,55.8,29.58,North,0,0.0,0.0,79,0.00,,,0.00,WUHU21623XXSP,2013-11-16 23:05:00,
2013-11-16 17:10:00,62.4,56.1,29.58,North,0,0.0,0.0,80,0.00,,,0.00,WUHU21623XXSP,2013-11-16 23:10:00,
2013-11-16 17:15:00,62.4,56.1,29.58,North,0,0.0,0.0,80,0.00,,,0.00,WUHU21623XXSP,2013-11-16 23:15:00,
2013-11-16 17:20:00,62.2,55.6,29.58,North,0,0.0,0.0,79,0.00,,,0.00,WUHU21623XXSP,2013-11-16 23:20:00,
2013-11-16 17:25:00,62.2,55.6,29.58,North,0,0.0,0.0,79,0.00,,,0.00,WUHU21623XXSP,2013-11-16 23:25:00,
2013-11-16 17:30:00,62.2,55.6,29.58,North,0,0.0,0.0,79,0.00,,,0.00,WUHU21623XXSP,2013-11-16 23:30:00,
2013-11-16 17:35:00,62.1,55.5,29.59,North,0,0.0,0.0,79,0.00,,,0.00,WUHU21623XXSP,2013-11-16 23:35:00,
2013-11-16 17:40:00,61.9,55.7,29.59,North,0,0.0,0.0,80,0.00,,,0.00,WUHU21623XXSP,2013-11-16 23:40:00,
2013-11-16 17:45:00,61.7,55.5,29.59,North,0,0.0,0.0,80,0.00,,,0.00,WUHU21623XXSP,2013-11-16 23:45:00,
2013-11-16 17:50:00,61.5,55.3,29.59,North,0,0.0,0.0,80,0.00,,,0.00,WUHU21623XXSP,2013-11-16 23:50:00,
2013-11-16 17:55:00,61.5,55.3,29.59,North,0,0.0,0.0,80,0.00,,,0.00,WUHU21623XXSP,2013-11-16 23:55:00,
2013-11-16 18:00:00,61.3,55.2,29.59,North,0,0.0,0.0,80,0.00,,,0.00,WUHU21623XXSP,2013-11-17 00:00:00,
2013-11-16 18:05:00,61.3,55.5,29.59,North,0,0.0,0.0,81,0.00,,,0.00,WUHU21623XXSP,2013-11-17 00:05:00,
2013-11-16 18:10:00,61.2,55.3,29.59,North,0,0.0,0.0,81,0.00,,,0.00,WUHU21623XXSP,2013-11-17 00:10:00,
2013-11-16 18:15:00,61.0,55.2,29.60,North,0,0.0,0.0,81,0.00,,,0.00,WUHU21623XXSP,2013-11-17 00:15:00,
2013-11-16 18:20:00,61.0,55.2,29.60,North,0,0.0,0.0,81,0.00,,,0.00,WUHU21623XXSP,2013-11-17 00:20:00,
2013-11-16 18:25:00,61.0,55.2,29.60,North,0,0.0,0.0,81,0.00,,,0.00,WUHU21623XXSP,2013-11-17 00:25:00,
2013-11-16 18:30:00,60.8,55.0,29.60,North,0,0.0,0.0,81,0.00,,,0.00,WUHU21623XXSP,2013-11-17 00:30:00,
2013-11-16 18:35:00,60.6,54.8,29.60,North,0,0.0,0.0,81,0.00,,,0.00,WUHU21623XXSP,2013-11-17 00:35:00,
2013-11-16 18:40:00,60.6,54.8,29.61,North,0,0.0,0.0,81,0.00,,,0.00,WUHU21623XXSP,2013-11-17 00:40:00,
2013-11-16 18:45:00,60.6,54.8,29.61,North,0,0.0,0.0,81,0.00,,,0.00,WUHU21623XXSP,2013-11-17 00:45:00,
2013-11-16 18:50:00,60.6,54.8,29.61,North,0,0.0,0.0,81,0.00,,,0.00,WUHU21623XXSP,2013-11-17 00:50:00,
2013-11-16 18:55:00,60.8,55.0,29.61,North,0,0.0,0.0,81,0.00,,,0.00,WUHU21623XXSP,2013-11-17 00:55:00,
2013-11-16 19:00:00,61.0,55.2,29.61,North,0,0.0,0.0,81,0.00,,,0.00,WUHU21623XXSP,2013-11-17 01:00:00,
2013-11-16 19:05:00,61.0,55.2,29.62,North,0,0.0,0.0,81,0.00,,,0.00,WUHU21623XXSP,2013-11-17 01:05:00,
2013-11-16 19:10:00,61.0,55.2,29.62,North,0,0.0,0.0,81,0.00,,,0.00,WUHU21623XXSP,2013-11-17 01:10:00,
2013-11-16 19:15:00,61.0,55.2,29.62,North,0,0.0,0.0,81,0.00,,,0.00,WUHU21623XXSP,2013-11-17 01:15:00,
2013-11-16 19:20:00,61.0,55.2,29.62,North,0,0.0,0.0,81,0.00,,,0.00,WUHU21623XXSP,2013-11-17 01:20:00,
2013-11-16 19:25:00,61.0,55.2,29.61,North,0,0.0,0.0,81,0.00,,,0.00,WUHU21623XXSP,2013-11-17 01:25:00,
2013-11-16 19:30:00,61.0,55.2,29.61,North,0,0.0,0.0,81,0.00,,,0.00,WUHU21623XXSP,2013-11-17 01:30:00,
2013-11-16 19:35:00,61.0,55.5,29.61,North,0,0.0,0.0,82,0.00,,,0.00,WUHU21623XXSP,2013-11-17 01:35:00,
2013-11-16 19:40:00,61.0,55.5,29.61,North,0,0.0,0.0,81,0.00,,,0.00,WUHU21623XXSP,2013-11-17 01:40:00,
2013-11-16 19:45:00,61.0,55.2,29.61,North,0,0.0,0.0,81,0.00,,,0.00,WUHU21623XXSP,2013-11-17 01:45:00,
2013-11-16 19:50:00,61.0,55.2,29.61,North,0,0.0,0.0,81,0.00,,,0.00,WUHU21623XXSP,2013-11-17 01:50:00,
2013-11-16 19:55:00,61.0,55.2,29.61,North,0,0.0,0.0,82,0.00,,,0.00,WUHU21623XXSP,2013-11-17 01:55:00,
2013-11-16 20:00:00,61.0,55.5,29.61,North,0,0.0,0.0,82,0.00,,,0.00,WUHU21623XXSP,2013-11-17 02:00:00,
2013-11-16 20:05:00,61.0,55.5,29.61,North,0,0.0,0.0,82,0.00,,,0.00,WUHU21623XXSP,2013-11-17 02:05:00,
2013-11-16 20:10:00,61.2,55.7,29.61,North,0,0.0,0.0,82,0.00,,,0.00,WUHU21623XXSP,2013-11-17 02:10:00,
2013-11-16 20:15:00,61.2,55.7,29.61,North,0,0.0,0.0,82,0.00,,,0.00,WUHU21623XXSP,2013-11-17 02:15:00,
2013-11-16 20:20:00,61.3,55.8,29.61,North,0,0.0,0.0,82,0.00,,,0.00,WUHU21623XXSP,2013-11-17 02:20:00,
2013-11-16 20:25:00,61.5,56.0,29.61,North,0,0.0,0.0,82,0.00,,,0.00,WUHU21623XXSP,2013-11-17 02:25:00,
2013-11-16 20:30:00,61.5,55.7,29.61,North,0,0.0,0.0,81,0.00,,,0.00,WUHU21623XXSP,2013-11-17 02:30:00,
2013-11-16 20:35:00,61.3,55.5,29.61,North,0,0.0,0.0,81,0.00,,,0.00,WUHU21623XXSP,2013-11-17 02:35:00,
2013-11-16 20:40:00,61.3,55.5,29.61,North,0,0.0,0.0,81,0.00,,,0.00,WUHU21623XXSP,2013-11-17 02:40:00,
2013-11-16 20:45:00,61.2,55.3,29.61,North,0,0.0,0.0,81,0.00,,,0.00,WUHU21623XXSP,2013-11-17 02:45:00,
2013-11-16 20:50:00,61.0,55.5,29.61,North,0,0.0,0.0,82,0.00,,,0.00,WUHU21623XXSP,2013-11-17 02:50:00,
2013-11-16 20:55:00,61.0,55.5,29.62,North,0,0.0,0.0,82,0.00,,,0.00,WUHU21623XXSP,2013-11-17 02:55:00,
2013-11-16 21:00:00,60.6,55.1,29.61,North,0,0.0,0.0,82,0.00,,,0.00,WUHU21623XXSP,2013-11-17 03:00:00,
2013-11-16 21:05:00,60.6,55.1,29.61,North,0,0.0,0.0,82,0.00,,,0.00,WUHU21623XXSP,2013-11-17 03:05:00,
2013-11-16 21:10:00,60.6,55.5,29.61,North,0,0.0,0.0,83,0.00,,,0.00,WUHU21623XXSP,2013-11-17 03:10:00,
2013-11-16 21:15:00,60.6,55.1,29.61,North,0,0.0,0.0,82,0.00,,,0.00,WUHU21623XXSP,2013-11-17 03:15:00,
2013-11-16 21:21:00,60.6,55.1,29.61,North,0,0.0,0.0,82,0.00,,,0.00,WUHU21623XXSP,2013-11-17 03:21:00,
2013-11-16 21:26:00,60.6,55.1,29.61,North,0,0.0,0.0,82,0.00,,,0.00,WUHU21623XXSP,2013-11-17 03:26:00,
2013-11-16 21:31:00,60.4,55.1,29.61,North,0,0.0,0.0,82,0.00,,,0.00,WUHU21623XXSP,2013-11-17 03:31:00,
2013-11-16 21:36:00,60.4,55.0,29.61,North,0,0.0,0.0,82,0.00,,,0.00,WUHU21623XXSP,2013-11-17 03:36:00,
2013-11-16 21:41:00,60.4,55.3,29.60,North,0,0.0,0.0,83,0.00,,,0.00,WUHU21623XXSP,2013-11-17 03:41:00,
2013-11-16 21:46:00,60.1,54.9,29.60,North,0,0.0,0.0,83,0.00,,,0.00,WUHU21623XXSP,2013-11-17 03:46:00,
2013-11-16 21:51:00,60.1,54.9,29.60,North,0,0.0,0.0,83,0.00,,,0.00,WUHU21623XXSP,2013-11-17 03:51:00,
2013-11-16 21:56:00,60.1,54.9,29.60,North,0,0.0,0.0,83,0.00,,,0.00,WUHU21623XXSP,2013-11-17 03:56:00,
2013-11-16 22:01:00,60.1,54.9,29.60,North,0,0.0,0.0,83,0.00,,,0.00,WUHU21623XXSP,2013-11-17 04:01:00,
2013-11-16 22:06:00,60.1,54.9,29.60,North,0,0.0,0.0,83,0.00,,,0.00,WUHU21623XXSP,2013-11-17 04:06:00,
2013-11-16 22:11:00,60.3,55.3,29.60,North,0,0.0,0.0,84,0.00,,,0.00,WUHU21623XXSP,2013-11-17 04:11:00,
2013-11-16 22:16:00,60.4,55.4,29.60,North,0,0.0,0.0,84,0.00,,,0.00,WUHU21623XXSP,2013-11-17 04:16:00,
2013-11-16 22:21:00,60.4,55.6,29.59,North,0,0.0,0.0,84,0.00,,,0.00,WUHU21623XXSP,2013-11-17 04:21:00,
2013-11-16 22:26:00,60.6,55.8,29.60,North,0,0.0,0.0,84,0.00,,,0.00,WUHU21623XXSP,2013-11-17 04:26:00,
2013-11-16 22:31:00,60.6,55.8,29.59,North,0,0.0,0.0,84,0.00,,,0.00,WUHU21623XXSP,2013-11-17 04:31:00,
2013-11-16 22:36:00,61.0,56.1,29.59,North,0,0.0,0.0,84,0.00,,,0.00,WUHU21623XXSP,2013-11-17 04:36:00,
2013-11-16 22:41:00,61.2,56.3,29.59,North,0,0.0,0.0,84,0.00,,,0.00,WUHU21623XXSP,2013-11-17 04:41:00,
2013-11-16 22:46:00,61.3,56.5,29.59,North,0,0.0,0.0,84,0.00,,,0.00,WUHU21623XXSP,2013-11-17 04:46:00,
2013-11-16 22:51:00,61.3,56.5,29.59,North,0,0.0,0.0,84,0.00,,,0.00,WUHU21623XXSP,2013-11-17 04:51:00,
2013-11-16 22:56:00,61.3,56.5,29.59,North,0,0.0,0.0,84,0.00,,,0.00,WUHU21623XXSP,2013-11-17 04:56:00,
2013-11-16 23:01:00,61.5,56.6,29.59,North,0,0.0,0.0,84,0.00,,,0.00,WUHU21623XXSP,2013-11-17 05:01:00,
2013-11-16 23:03:00,61.5,56.6,29.59,North,0,0.0,0.0,84,0.00,,,0.00,WUHU21623XXSP,2013-11-17 05:03:00,
2013-11-16 23:06:00,61.7,56.8,29.59,North,0,0.0,0.0,84,0.00,,,0.00,WUHU21623XXSP,2013-11-17 05:06:00,
2013-11-16 23:08:00,61.7,56.8,29.59,North,0,0.0,0.0,84,0.00,,,0.00,WUHU21623XXSP,2013-11-17 05:08:00,
2013-11-16 23:13:00,61.9,57.0,29.59,North,0,0.0,0.0,84,0.00,,,0.00,WUHU21623XXSP,2013-11-17 05:13:00,
2013-11-16 23:18:00,62.1,57.1,29.58,North,0,0.0,0.0,84,0.00,,,0.00,WUHU21623XXSP,2013-11-17 05:18:00,
2013-11-16 23:23:00,62.2,57.3,29.58,North,0,0.0,0.0,84,0.00,,,0.00,WUHU21623XXSP,2013-11-17 05:23:00,
2013-11-16 23:28:00,62.4,57.5,29.57,North,0,0.0,0.0,84,0.00,,,0.00,WUHU21623XXSP,2013-11-17 05:28:00,
2013-11-16 23:33:00,62.4,57.5,29.56,North,0,0.0,0.0,84,0.00,,,0.00,WUHU21623XXSP,2013-11-17 05:33:00,
2013-11-16 23:38:00,62.4,57.5,29.56,North,0,0.0,0.0,84,0.00,,,0.00,WUHU21623XXSP,2013-11-17 05:38:00,
2013-11-16 23:43:00,62.4,57.5,29.56,North,0,0.0,0.0,84,0.00,,,0.00,WUHU21623XXSP,2013-11-17 05:43:00,
2013-11-16 23:46:00,62.4,57.5,29.56,North,0,0.0,0.0,84,0.00,,,0.00,WUHU21623XXSP,2013-11-17 05:46:00,
2013-11-16 23:51:00,62.4,57.5,29.57,North,0,0.0,0.0,84,0.00,,,0.00,WUHU21623XXSP,2013-11-17 05:51:00,
2013-11-16 23:56:00,62.4,57.5,29.57,North,0,0.0,0.0,84,0.00,,,0.00,WUHU21623XXSP,2013-11-17 05:56:00,